This is the latest recevied weather packets stored in our database for station/object OK1OBR-13. If no packets are shown the sender has not sent any weather packets the latest 1 day(s).
| Time | Temp. | Humidity | Pressure | Rain* | Wind** | Luminosity | Snow |
|---|---|---|---|---|---|---|---|
| 1777990442 | 22.78° C | 42% | 928.8 hPa | 0 mm | 0.89 m/s, 190° | - | - |
| 1777990381 | 22.22° C | 41% | 928.7 hPa | 0 mm | 0.89 m/s, 183° | - | - |
| 1777990324 | 22.22° C | 41% | 928.8 hPa | 0 mm | 0 m/s | - | - |
| 1777990261 | 22.22° C | 42% | 929 hPa | 0 mm | 0.45 m/s, 186° | - | - |
| 1777990203 | 22.22° C | 44% | 928.8 hPa | 0 mm | 0.89 m/s, 163° | - | - |
| 1777990141 | 22.22° C | 42% | 928.9 hPa | 0 mm | 0.45 m/s, 179° | - | - |
| 1777990081 | 22.22° C | 41% | 928.8 hPa | 0 mm | 0.89 m/s, 212° | - | - |
| 1777990021 | 22.22° C | 42% | 928.9 hPa | 0 mm | 0.89 m/s, 213° | - | - |
| 1777989961 | 22.22° C | 41% | 928.9 hPa | 0 mm | 0.45 m/s, 219° | - | - |
| 1777989901 | 22.22° C | 41% | 928.9 hPa | 0 mm | 0.89 m/s, 208° | - | - |
| 1777989840 | 22.22° C | 41% | 929.1 hPa | 0 mm | 0.89 m/s, 189° | - | - |
| 1777989781 | 22.22° C | 42% | 929.1 hPa | 0 mm | 1.34 m/s, 167° | - | - |
| 1777989721 | 22.22° C | 44% | 929.1 hPa | 0 mm | 0.89 m/s, 197° | - | - |
| 1777989662 | 22.22° C | 42% | 929 hPa | 0 mm | 0.89 m/s, 134° | - | - |
| 1777989600 | 22.22° C | 43% | 929 hPa | 0 mm | 0.89 m/s, 100° | - | - |
| 1777989541 | 22.22° C | 41% | 929.2 hPa | 0 mm | 1.34 m/s, 165° | - | - |
| 1777989482 | 22.22° C | 42% | 929 hPa | 0 mm | 0.89 m/s, 189° | - | - |
| 1777989421 | 22.22° C | 42% | 929.1 hPa | 0 mm | 1.34 m/s, 174° | - | - |
| 1777989361 | 22.22° C | 41% | 929.1 hPa | 0 mm | 1.34 m/s, 217° | - | - |
| 1777989308 | 22.22° C | 43% | 929 hPa | 0 mm | 0.89 m/s, 214° | - | - |
| 1777989241 | 22.22° C | 41% | 929 hPa | 0 mm | 0.89 m/s, 186° | - | - |
| 1777989182 | 22.22° C | 40% | 929.3 hPa | 0 mm | 0.89 m/s, 178° | - | - |
| 1777989121 | 22.22° C | 42% | 929.1 hPa | 0 mm | 0.89 m/s, 188° | - | - |
| 1777989062 | 22.22° C | 40% | 929.1 hPa | 0 mm | 0.89 m/s, 202° | - | - |
| 1777989001 | 22.22° C | 45% | 929.1 hPa | 0 mm | 0.89 m/s, 185° | - | - |
* Rain since midnight (hover to see other rain measurements)
** Current wind speed in m/s (hover to see current wind gust speed)